This is the latest recevied weather packets stored in our database for station/object KC9DRE. If no packets are shown the sender has not sent any weather packets the latest 10 day(s).
| Time | Temp. | Humidity | Pressure | Rain* | Wind** | Luminosity | Snow |
|---|---|---|---|---|---|---|---|
| 1787959463 | 26.11° C | 57% | 1019.1 hPa | 0 mm | - | 35 W/m² | - |
| 1787959158 | 26.11° C | 53% | 1019.1 hPa | 0 mm | - | 37 W/m² | - |
| 1787958853 | 26.67° C | 53% | 1019.1 hPa | 0 mm | - | 39 W/m² | - |
| 1787958548 | 26.67° C | 52% | 1019.3 hPa | 0 mm | - | 41 W/m² | - |
| 1787958245 | 27.22° C | 51% | 1019.4 hPa | 0 mm | - | 43 W/m² | - |
| 1787957943 | 27.22° C | 48% | 1019.1 hPa | 0 mm | - | 45 W/m² | - |
| 1787957643 | 27.78° C | 49% | 1019.2 hPa | 0 mm | - | 46 W/m² | - |
| 1787957339 | 28.33° C | 47% | 1019.1 hPa | 0 mm | - | 49 W/m² | - |
| 1787957038 | 28.89° C | 46% | 1019.2 hPa | 0 mm | - | 116 W/m² | - |
| 1787956736 | 28.89° C | 45% | 1019.3 hPa | 0 mm | - | 146 W/m² | - |
| 1787956433 | 28.89° C | 47% | 1019.3 hPa | 0 mm | - | 159 W/m² | - |
| 1787956128 | 28.89° C | 47% | 1019.2 hPa | 0 mm | - | 174 W/m² | - |
| 1787955823 | 28.89° C | 47% | 1019.3 hPa | 0 mm | - | 190 W/m² | - |
| 1787955519 | 29.44° C | 46% | 1019.2 hPa | 0 mm | - | 205 W/m² | - |
| 1787955218 | 28.89° C | 46% | 1019.1 hPa | 0 mm | - | 220 W/m² | - |
| 1787954913 | 28.89° C | 47% | 1019.3 hPa | 0 mm | - | 237 W/m² | - |
| 1787954609 | 29.44° C | 47% | 1019.3 hPa | 0 mm | - | 251 W/m² | - |
| 1787954308 | 29.44° C | 50% | 1019.4 hPa | 0 mm | - | 274 W/m² | - |
| 1787954004 | 30° C | 46% | 1019.3 hPa | 0 mm | - | 309 W/m² | - |
| 1787953702 | 30° C | 48% | 1019.2 hPa | 0 mm | - | 324 W/m² | - |
| 1787953398 | 30° C | 47% | 1019.4 hPa | 0 mm | - | 322 W/m² | - |
| 1787953095 | 30° C | 47% | 1019.3 hPa | 0 mm | - | 335 W/m² | - |
| 1787952795 | 29.44° C | 48% | 1019.3 hPa | 0 mm | - | 352 W/m² | - |
| 1787952489 | 30° C | 47% | 1019.5 hPa | 0 mm | - | 367 W/m² | - |
| 1787952188 | 30° C | 46% | 1019.3 hPa | 0 mm | - | 385 W/m² | - |
* Rain latest hour (hover to see other rain measurements)
** Current wind speed in m/s (hover to see current wind gust speed)